sat.trackr.live / text

‹ back to catalog

GEESAT-4 08

NORAD 65126 · 2025-170H

PAYLOAD ACTIVE UNKNOWN

§ Identity

Operator
Country
PRC
Launch date
2025-08-08
Launch site
YSLA
Launch vehicle
Mass (kg)
RCS (m²)

External: N2YO · Heavens-Above · Gunter

§ Orbital elements

Epoch: 2026-09-21T22:20:24.369504Z

Period
97.14 min
Inclination
49.9668°
Eccentricity
0.0020328
Mean motion
14.82384051 rev/d
Perigee alt
607.6 km
Apogee alt
636.0 km
Semi-major
6,999.9 km
B*
1.3174e-4
RAAN
39.6979°
Arg perigee
353.4735°
Mean anomaly
6.5934°
Rev number
6,140

§ Raw data

GEESAT-4 081 65126U 25170H   26264.93083761  .00000841  00000+0  13174-3 0  99932 65126  49.9668  39.6979 0020328 353.4735   6.5934 14.82384051 61406

JSON: /api/v1/satellites/65126 · /tle

For live sub-satellite position, see the globe view (requires WebGL).

§ Visibility from observer

Set your observer location to see the next 7 days of passes ≥ 10°. The values pass through the URL so the page stays shareable.

No JS? Fill the form by hand. The geolocation button needs JavaScript.